GW6206 Weather Reports


time (UTC)temp
C
wind
direction
speed
KPH
gust
KPH
rain 1hr
cm
rain 24hr
cm
rain mn
cm
humidity
%
barometer
mb
20260505084016 13 0.0 3.2 0.00 0.03 0.00 52 1009.8
20260505083016 13 68 1.6 4.8 0.00 0.03 0.00 49 1009.7
20260505082016 13 45 4.8 14.5 0.00 0.03 0.00 49 1009.7
20260505081018 13 68 3.2 12.9 0.00 0.03 0.00 51 1009.7
20260505080017 13 68 3.2 8.0 0.00 0.03 0.00 52 1009.9
20260505075016 13 68 3.2 8.0 0.00 0.03 0.00 51 1010.1
20260505074017 13 135 9.7 25.7 0.00 0.03 0.00 51 1009.9
20260505073017 13 68 12.9 20.9 0.00 0.03 0.00 54 1010.0
20260505072016 12 68 8.0 17.7 0.00 0.03 0.00 57 1009.9
20260505071016 12 68 11.3 25.7 0.00 0.03 0.00 59 1009.8
20260505070017 12 90 8.0 17.7 0.00 0.03 0.00 64 1009.9
20260505065016 11 68 8.0 16.1 0.00 0.03 0.00 70 1009.5
20260505064016 11 113 1.6 9.7 0.00 0.03 0.00 77 1009.8
20260505063018 12 113 6.4 12.9 0.00 0.03 0.00 73 1010.1
20260505062017 12 135 6.4 12.9 0.00 0.03 0.00 72 1010.2
20260505061016 12 180 6.4 12.9 0.00 0.03 0.00 72 1010.2
20260505060016 12 203 4.8 9.7 0.00 0.03 0.03 74 1010.3
20260505055024 12 180 3.2 8.0 0.00 0.03 0.03 74 1010.1
20260505054017 12 135 3.2 6.4 0.00 0.03 0.03 73 1009.6
20260505053016 12 135 1.6 4.8 0.00 0.03 0.03 71 1009.7
20260505052016 12 113 1.6 6.4 0.00 0.03 0.03 71 1010.1
20260505051017 12 180 4.8 11.3 0.00 0.03 0.03 70 1009.9
20260505041017 14 180 4.8 11.3 0.00 0.03 0.03 61 1008.9
20260505040018 14 158 8.0 19.3 0.00 0.03 0.03 59 1008.8
20260505035038 15 158 6.4 20.9 0.00 0.03 0.03 57 1008.7
20260505034017 15 135 11.3 27.4 0.00 0.03 0.03 51 1008.2
20260505033019 15 135 11.3 22.5 0.00 0.03 0.03 48 1007.7
20260505032018 16 180 8.0 22.5 0.00 0.03 0.03 43 1007.4
20260505031019 16 135 3.2 6.4 0.00 0.03 0.03 40 1006.7
20260505030017 16 0.0 3.2 0.00 0.03 0.03 39 1006.4
20260505025020 16 90 1.6 4.8 0.00 0.03 0.03 38 1006.2
20260505024017 16 90 1.6 9.7 0.00 0.03 0.03 38 1005.7
20260505023017 16 90 9.7 19.3 0.00 0.03 0.03 38 1005.6
20260505022018 16 90 11.3 17.7 0.00 0.03 0.03 39 1005.6
20260505021038 17 90 8.0 24.1 0.00 0.03 0.03 41 1005.5
20260505020017 17 90 6.4 11.3 0.00 0.03 0.03 40 1005.4
20260505015038 16 90 12.9 22.5 0.00 0.03 0.03 42 1005.1
20260505014017 16 113 19.3 30.6 0.00 0.03 0.03 44 1005.6
20260505013038 16 113 20.9 38.6 0.00 0.03 0.03 43 1005.6
20260505012017 17 113 16.1 25.7 0.03 0.03 0.03 43 1005.7
20260505011017 16 90 6.4 12.9 0.03 0.03 0.03 46 1005.9
20260505010016 16 68 8.0 19.3 0.03 0.03 0.03 46 1006.1
20260505005018 16 90 9.7 17.7 0.03 0.03 0.03 48 1006.2
20260505004023 16 113 8.0 14.5 0.03 0.03 0.03 51 1006.3
20260505003018 16 113 11.3 19.3 0.03 0.03 0.03 53 1006.4
20260505002019 17 135 12.9 22.5 0.00 0.00 0.00 49 1006.6
20260505001018 18 158 4.8 11.3 0.00 0.00 0.00 41 1007.0
20260505000017 20 225 4.8 9.7 0.00 0.00 0.00 35 1007.1
20260504235017 21 225 4.8 11.3 0.00 0.00 0.00 30 1007.3
20260504234038 21 135 3.2 8.0 0.00 0.00 0.00 30 1007.3
20260504233018 21 158 4.8 11.3 0.00 0.00 0.00 30 1007.2
20260504232017 22 135 8.0 17.7 0.00 0.00 0.00 30 1007.4
20260504231058 22 315 4.8 14.5 0.00 0.00 0.00 29 1007.3
20260504230016 21 225 6.4 11.3 0.00 0.00 0.00 29 1006.9
20260504225039 22 315 14.5 22.5 0.00 0.00 0.00 27 1007.3
20260504224018 22 315 8.0 16.1 0.00 0.00 0.00 27 1006.9
20260504223016 22 293 3.2 8.0 0.00 0.00 0.00 26 1007.1
20260504222018 22 225 6.4 17.7 0.00 0.00 0.00 25 1007.2
20260504221018 22 225 8.0 16.1 0.00 0.00 0.00 27 1007.6
20260504220017 23 270 6.4 22.5 0.00 0.00 0.00 28 1008.1
20260504215016 24 203 8.0 16.1 0.00 0.00 0.00 23 1008.2
20260504214017 24 293 3.2 8.0 0.00 0.00 0.00 21 1008.3
20260504213017 24 158 6.4 14.5 0.00 0.00 0.00 24 1008.6
20260504212018 23 203 6.4 12.9 0.00 0.00 0.00 28 1008.3
20260504211023 23 225 9.7 19.3 0.00 0.00 0.00 27 1008.8
20260504210017 23 180 11.3 29.0 0.00 0.00 0.00 27 1008.8
20260504205038 23 225 6.4 16.1 0.00 0.00 0.00 25 1008.9
20260504204018 24 180 6.4 17.7 0.00 0.00 0.00 24 1008.6
20260504203018 23 225 6.4 12.9 0.00 0.00 0.00 25 1008.7
20260504202020 23 248 6.4 12.9 0.00 0.00 0.00 26 1008.8
20260504201017 23 248 6.4 14.5 0.00 0.00 0.00 27 1008.9
20260504200019 23 203 4.8 11.3 0.00 0.00 0.00 28 1009.0
20260504195038 23 158 1.6 11.3 0.00 0.00 0.00 28 1009.2
20260504194017 23 180 9.7 17.7 0.00 0.00 0.00 29 1008.6
20260504193022 23 180 6.4 16.1 0.00 0.00 0.00 29 1008.7
20260504192016 22 113 6.4 14.5 0.00 0.00 0.00 32 1008.6
20260504191016 22 315 6.4 16.1 0.00 0.00 0.00 29 1008.9
20260504190017 22 315 4.8 12.9 0.00 0.00 0.00 29 1009.1
20260504185018 22 270 3.2 9.7 0.00 0.00 0.00 28 1009.2
20260504184037 22 180 4.8 12.9 0.00 0.00 0.00 31 1009.5
20260504183018 22 158 6.4 14.5 0.00 0.00 0.00 31 1009.6
20260504182018 21 45 3.2 9.7 0.00 0.00 0.00 31 1009.3
20260504181016 21 158 8.0 17.7 0.00 0.00 0.00 30 1009.8
20260504180019 21 180 3.2 11.3 0.00 0.00 0.00 32 1010.0
20260504175017 21 203 11.3 17.7 0.00 0.00 0.00 31 1010.1
20260504174017 21 203 8.0 12.9 0.00 0.00 0.00 33 1009.8
20260504173016 20 225 3.2 9.7 0.00 0.00 0.00 33 1010.0
20260504172018 20 158 3.2 14.5 0.00 0.00 0.00 35 1010.1
20260504171016 20 180 8.0 11.3 0.00 0.00 0.00 34 1010.0
20260504151018 15 23 1.6 4.8 0.00 0.00 0.00 48 1010.1
20260504141039 13 0.0 0.0 0.00 0.00 0.00 53 1010.3